This is the latest recevied weather packets stored in our database for station/object KR4ELZ. If no packets are shown the sender has not sent any weather packets the latest 10 day(s).
| Time | Temp. | Humidity | Pressure | Rain* | Wind** | Luminosity | Snow |
|---|---|---|---|---|---|---|---|
| 1777434560 | 18.33° C | 99% | 1012.8 hPa | 16.76 mm | - | 0 W/m² | - |
| 1777434258 | 18.33° C | 99% | 1013.4 hPa | 11.94 mm | - | 0 W/m² | - |
| 1777433955 | 18.33° C | 99% | 1012.2 hPa | 16.76 mm | - | 0 W/m² | - |
| 1777433651 | 18.89° C | 99% | 1013.4 hPa | 14.99 mm | - | 0 W/m² | - |
| 1777433347 | 18.89° C | 99% | 1013.7 hPa | 13.72 mm | - | 0 W/m² | - |
| 1777433043 | 18.89° C | 99% | 1013.3 hPa | 13.72 mm | - | 0 W/m² | - |
| 1777432738 | 18.89° C | 99% | 1014 hPa | 10.16 mm | - | 0 W/m² | - |
| 1777432434 | 18.89° C | 99% | 1013.4 hPa | 13.72 mm | - | 0 W/m² | - |
| 1777432130 | 18.89° C | 99% | 1013.1 hPa | 19.81 mm | - | 0 W/m² | - |
| 1777431824 | 18.89° C | 99% | 1013.9 hPa | 25.91 mm | - | 0 W/m² | - |
| 1777431521 | 19.44° C | 99% | 1014.3 hPa | 23.37 mm | - | 0 W/m² | - |
| 1777431217 | 19.44° C | 99% | 1014 hPa | 14.99 mm | - | 0 W/m² | - |
| 1777430913 | 19.44° C | 99% | 1013.8 hPa | 13.21 mm | - | 0 W/m² | - |
| 1777430610 | 19.44° C | 99% | 1012.6 hPa | 13.72 mm | - | 0 W/m² | - |
| 1777430306 | 19.44° C | 99% | 1012.5 hPa | 16.76 mm | - | 0 W/m² | - |
| 1777430005 | 19.44° C | 99% | 1012.9 hPa | 48.51 mm | - | 0 W/m² | - |
| 1777429702 | 19.44° C | 99% | 1012.5 hPa | 94.23 mm | - | 0 W/m² | - |
| 1777429398 | 19.44° C | 99% | 1013.1 hPa | 77.47 mm | - | 0 W/m² | - |
| 1777429094 | 19.44° C | 99% | 1013.6 hPa | 28.7 mm | - | 0 W/m² | - |
| 1777428790 | 19.44° C | 99% | 1013.4 hPa | 11.94 mm | - | 0 W/m² | - |
| 1777428486 | 19.44° C | 99% | 1012.8 hPa | 6.1 mm | - | 0 W/m² | - |
| 1777428183 | 19.44° C | 99% | 1012.8 hPa | 21.59 mm | - | 0 W/m² | - |
| 1777427878 | 19.44° C | 99% | 1012.5 hPa | 27.69 mm | - | 0 W/m² | - |
| 1777427574 | 19.44° C | 99% | 1012.5 hPa | 13.72 mm | - | 0 W/m² | - |
| 1777427271 | 19.44° C | 99% | 1013.1 hPa | 13.72 mm | - | 0 W/m² | - |
* Rain latest hour (hover to see other rain measurements)
** Current wind speed in m/s (hover to see current wind gust speed)